SCP
0 0 0 0 0 0 0 0 0 0 0 0 0 0 0 0 0 0 0 0 0 0 1 1 1 1 1 0 0 0 0 0 0 0 0 0 0 0 0 0 0 0 0 0 0 0 0 0 0
0 0 0 0 0 0 0 0 0 0 0 0 0 0 0 0 0 0 0 0 0 1 1 1 1 1 1 0 0 0 0 0 0 0 0 0 0 0 0 0 0 0 0 0 0 0 0 0 0
0 0 0 0 0 0 0 0 -0 0 0 0 0 0 0 0 0 0 0 0 0 1 1 1 1 1 1 0 0 0 0 0 0 0 0 0 0 0 0 0 0 0 0 0 0 0 0 0 0
0 0 0 0 0 0 -0 -0 -0 0 0 0 0 0 0 0 0 0 0 0 0 0 0 1 1 1 1 0 0 0 0 0 0 0 0 0 0 0 0 0 0 0 0 0 0 0 0 0 0
0 0 0 0 0 0 -0 -0 -0 0 0 0 0 0 0 0 0 0 0 0 0 0 0 1 1 1 1 0 0 0 0 0 0 0 0 0 0 0 0 0 0 0 0 0 0 0 0 0 0
0 0 0 0 0 0 0 0 0 0 0 0 0 0 0 0 0 0 0 0 0 0 0 0 1 1 0 0 0 0 0 0 0 0 0 0 0 0 0 0 0 0 0 0 0 0 0 0 0
0 0 0 0 0 0 0 0 0 0 0 0 0 0 0 0 0 0 0 0 0 0 0 0 0 0 0 0 0 0 0 0 0 0 0 0 0 0 0 0 0 0 0 0 0 0 0 0 0
0 0 0 0 0 0 0 0 0 0 0 0 0 0 0 0 0 0 0 0 0 0 0 0 0 0 0 0 0 0 0 0 0 0 0 0 0 0 0 0 0 0 0 0 0 0 0 0 0
0 0 0 0 0 0 0 0 0 0 0 0 0 0 0 0 1 1 1 0 0 0 0 0 0 0 0 0 0 0 0 0 0 0 0 0 0 0 0 0 0 0 0 0 0 0 0 0 0
0 0 0 0 0 0 0 0 0 0 0 0 0 0 1 1 1 1 1 1 0 0 0 0 0 0 0 0 0 0 0 0 0 0 0 0 0 0 0 0 0 0 0 0 0 0 0 0 0
0 0 0 0 0 0 0 0 0 0 0 0 0 0 1 1 1 1 1 1 0 0 0 0 0 0 1 1 0 0 0 0 0 0 0 0 0 0 0 0 0 0 0 0 0 0 0 0 0
0 0 0 0 0 0 0 0 0 0 0 0 0 1 1 1 1 1 1 0 0 0 1 1 1 1 1 1 1 0 0 0 0 0 0 0 0 0 0 0 0 0 0 0 0 0 0 0 0
0 0 0 0 0 0 0 0 0 0 0 0 0 1 1 1 1 1 1 0 0 0 0 1 1 1 1 1 0 0 0 0 0 0 0 0 0 0 0 0 0 0 0 0 0 0 0 0 0
0 0 0 0 0 0 0 0 0 0 0 0 0 1 1 1 1 1 1 1 0 0 0 1 1 1 1 1 0 0 0 0 0 0 0 0 0 0 0 0 0 0 0 0 0 0 0 0 0
0 0 0 0 0 0 0 0 0 0 0 0 0 0 1 1 1 1 1 1 0 0 0 0 1 1 1 1 0 0 0 0 0 0 0 0 0 0 0 0 0 0 0 0 0 0 0 0 0
0 0 0 0 0 0 0 0 0 0 0 0 0 0 0 0 1 1 1 0 0 0 0 0 1 1 1 1 0 0 0 0 0 0 0 0 0 0 0 0 0 0 0 0 0 0 0 0 0
0 0 0 0 0 0 0 0 0 0 0 0 0 0 0 0 0 0 0 0 0 0 0 0 1 1 1 0 0 0 0 0 0 0 0 0 0 0 0 0 0 0 0 0 0 0 0 0 0
0 0 0 0 0 0 0 0 0 0 0 0 0 0 0 0 0 0 0 0 0 0 0 0 1 1 1 0 0 0 0 0 0 0 0 0 0 0 0 0 0 0 0 0 0 0 0 0 0
0 0 0 0 0 0 0 0 0 0 0 0 0 0 0 0 0 0 0 0 0 0 0 0 0 1 0 0 0 0 0 0 0 0 0 0 0 0 0 0 0 0 0 0 0 0 0 0 0
0 0 0 0 0 0 0 0 0 0 0 0 0 0 0 0 0 0 0 0 0 0 0 0 0 0 0 0 0 0 0 0 0 0 0 0 0 0 0 0 0 0 0 0 0 0 0 0 0
0 0 0 0 0 0 0 0 0 0 0 0 0 0 0 0 0 0 0 0 0 0 0 0 0 0 0 0 0 0 0 0 0 0 0 0 0 0 0 0 0 0 0 0 0 0 0 0 0
0 0 0 0 0 0 0 0 0 0 0 0 0 0 0 0 0 0 0 0 0 0 0 0 0 0 0 0 0 0 0 0 0 0 0 0 0 0 0 0 0 0 0 0 0 0 0 0 0
0 0 0 0 0 0 0 0 0 0 0 0 0 0 0 0 0 0 0 0 0 0 0 0 0 0 0 0 0 0 0 0 0 0 0 0 0 0 0 0 0 0 0 0 0 0 0 0 0
0 0 0 0 0 0 0 0 0 0 0 0 0 0 0 0 0 0 0 0 0 0 0 0 0 0 0 0 0 0 0 0 0 0 0 0 0 0 0 0 0 0 0 0 0 0 0 0 0
0 0 0 0 0 0 0 0 0 0 0 0 0 0 0 0 0 0 0 0 0 0 0 0 0 0 0 0 0 0 0 0 0 0 0 0 0 0 0 0 0 0 0 0 0 0 0 0 0
0 0 0 0 0 0 0 0 0 0 0 0 0 0 0 0 0 0 0 0 0 0 0 0 0 0 0 0 0 0 0 0 0 0 0 0 0 0 0 0 0 0 0 0 0 0 0 0 0
0 0 0 0 0 0 0 0 0 0 0 0 0 0 0 0 0 0 0 0 0 0 0 0 0 0 0 0 0 0 0 0 0 0 0 0 0 0 0 0 0 0 0 0 0 0 0 0 0
0 0 0 0 0 0 0 0 0 0 0 0 0 0 0 0 0 0 0 0 0 0 0 0 0 0 0 0 0 0 0 0 0 0 0 0 0 0 0 0 0 0 0 0 0 0 0 0 0
0 0 0 0 0 0 0 0 0 0 0 0 0 0 0 0 0 0 0 0 0 0 0 0 0 0 0 0 0 0 0 0 0 0 0 0 0 0 0 0 0 0 0 0 0 0 0 0 0
0 0 0 0 0 0 0 0 0 0 0 0 0 0 0 0 0 0 0 0 0 0 0 0 0 0 0 0 0 0 0 0 0 0 0 0 0 0 0 0 0 0 0 0 0 0 0 0 0
Wind_Speed
2 2 2 2 5 6 2 3 2 3 2 1 2 4 5 3 3 2 1 8 10 10 8 11 12 11 11 11 11 11 11 11 10 10 9 9 9 9 9 10 10 10 10 10 9 9 9 9 9
2 2 2 4 6 3 3 3 3 2 1 1 3 3 3 2 2 4 4 7 10 10 7 9 13 12 12 11 11 10 11 11 10 10 9 9 9 9 9 9 10 10 9 9 9 9 8 8 8
2 2 4 5 4 3 3 3 3 3 2 1 2 2 2 2 3 4 5 10 10 9 7 9 13 12 12 11 10 10 10 10 10 9 9 9 9 9 9 9 9 9 9 9 9 8 8 7 7
2 4 5 5 1 3 4 4 3 2 3 3 2 2 2 2 3 5 9 11 10 8 6 8 13 12 11 11 10 10 10 10 9 9 9 9 8 8 8 8 8 8 9 9 9 8 8 7 6
4 5 5 3 3 4 3 3 1 1 1 1 2 2 2 3 5 9 11 10 10 8 6 7 12 12 11 11 10 9 9 9 9 8 8 8 8 7 7 7 7 8 8 8 8 7 7 7 6
5 5 4 1 4 4 3 2 0 0 0 1 3 2 1 1 5 8 9 8 7 8 6 6 11 11 11 10 10 9 9 8 8 8 8 7 7 7 7 6 6 7 7 7 7 6 6 6 6
5 4 3 2 2 3 2 1 1 1 1 1 3 3 1 1 3 6 6 6 5 6 5 4 6 8 10 10 9 9 8 7 7 7 7 7 7 7 6 6 5 5 6 7 6 6 6 5 5
5 5 2 2 2 4 2 1 0 1 1 1 4 5 4 4 7 7 6 5 5 4 4 4 4 4 4 5 8 9 8 7 7 7 7 7 6 6 6 4 5 4 5 6 6 6 5 5 5
4 5 2 4 5 4 1 1 1 0 2 1 1 3 4 10 11 8 6 4 4 5 4 4 3 3 3 3 6 6 7 6 6 5 6 5 2 2 2 3 4 4 4 5 5 5 5 5 4
4 4 7 5 4 3 2 1 1 1 1 1 2 2 7 12 11 10 8 8 8 7 6 4 4 4 3 4 3 2 2 2 2 2 2 2 1 1 2 2 3 3 3 4 4 4 4 3 2
4 6 5 4 4 3 2 2 0 2 2 4 4 6 10 10 9 9 8 8 8 7 6 5 5 4 4 3 2 1 1 1 1 2 2 2 1 1 1 0 0 0 1 1 1 2 1 2 2
3 4 3 3 2 2 3 1 1 2 5 3 4 9 11 12 10 9 8 7 5 5 7 6 5 5 4 3 3 2 2 1 1 2 2 2 1 1 1 1 1 1 1 1 1 1 1 2 3
3 3 2 3 3 2 2 1 2 3 3 1 4 8 10 10 8 6 5 5 5 5 5 5 5 5 4 3 3 3 2 2 2 2 2 2 2 2 1 1 1 1 1 1 1 1 2 2 3
3 2 2 2 2 2 3 1 0 4 1 3 5 6 8 8 8 6 5 6 6 6 6 5 6 5 5 4 3 3 2 2 2 2 2 3 2 2 2 1 1 1 1 1 1 2 2 1 1
0 1 4 2 1 1 3 2 3 4 1 3 4 5 5 5 5 7 7 6 5 5 5 5 6 5 4 4 3 3 2 2 2 2 2 3 3 3 2 2 1 1 1 2 2 2 2 1 1
2 2 2 4 0 0 5 4 6 1 2 2 2 4 4 3 4 5 5 4 4 4 5 5 5 5 4 3 3 2 2 2 1 1 2 3 4 4 3 2 2 2 2 2 2 2 2 2 2
3 1 2 4 1 2 3 4 5 1 2 2 2 3 3 2 2 2 3 3 4 4 5 5 4 5 4 3 2 2 2 2 2 2 2 2 3 4 3 2 2 3 3 2 2 2 2 2 1
3 2 2 3 2 2 2 4 4 2 1 2 2 2 3 3 3 2 2 3 3 2 3 4 4 4 4 3 2 1 1 1 1 1 2 2 2 3 3 3 3 3 3 2 2 3 2 2 1
4 3 3 4 2 1 3 3 4 2 1 1 2 2 2 2 1 1 2 3 3 3 3 4 5 4 4 3 2 2 1 1 1 1 2 2 2 3 3 3 3 3 3 3 3 3 3 2 2
3 2 3 3 1 1 1 3 3 1 1 2 3 3 2 1 1 1 2 3 3 3 3 3 4 4 4 3 2 1 2 1 1 0 1 2 2 3 3 4 3 3 3 4 3 3 2 2 2
3 5 5 3 2 3 1 4 2 2 1 1 1 2 2 3 3 2 3 3 3 3 4 4 4 4 4 3 2 2 2 2 1 1 0 1 2 3 3 4 3 3 3 3 3 3 4 3 2
4 6 6 4 2 2 1 3 5 3 2 1 0 1 2 2 3 3 3 3 3 3 3 3 3 4 4 4 4 4 3 2 2 1 1 1 2 2 3 4 4 4 3 3 3 3 3 4 2
5 2 3 2 3 0 1 2 7 2 2 3 2 2 2 2 3 3 3 3 2 3 3 3 3 3 3 3 4 4 3 2 1 1 2 2 1 1 2 3 3 3 3 3 4 3 3 3 3
4 5 5 5 4 1 3 3 6 3 4 3 3 3 3 2 2 1 2 3 2 3 3 3 3 2 2 3 3 4 4 3 3 2 2 1 1 1 2 3 3 3 3 3 3 3 4 3 3
5 6 3 4 2 5 2 3 8 5 4 4 5 4 3 2 2 2 3 3 3 3 3 3 3 3 2 3 3 3 4 4 4 3 2 2 2 1 1 2 2 2 2 3 3 3 3 3 3
5 8 7 5 5 4 1 5 6 4 2 2 3 3 3 2 2 3 3 3 3 3 3 3 3 3 3 3 2 2 3 2 2 2 2 2 2 1 2 2 3 3 3 3 3 3 2 3 3
7 4 6 6 2 1 4 5 6 1 0 1 2 3 3 2 2 2 3 4 3 3 3 4 4 3 3 3 2 2 2 2 2 2 2 2 2 2 3 3 3 3 3 3 3 2 2 3 2
6 9 6 6 5 3 3 4 5 4 3 2 2 3 3 1 1 1 2 3 3 3 3 4 4 3 3 3 3 2 2 2 3 3 3 2 2 3 3 3 3 3 3 3 3 2 2 3 2
4 4 5 5 5 6 3 7 5 6 6 5 4 4 3 3 2 2 2 2 3 3 3 3 3 3 2 2 2 2 2 2 2 3 3 3 3 3 3 3 3 3 2 2 3 2 2 3 2
5 7 8 6 4 5 4 7 3 4 4 5 4 3 3 3 3 3 3 4 4 3 3 3 3 3 2 3 3 3 2 3 3 2 2 3 3 3 3 3 3 3 2 2 3 3 2 3 2
Wind_Direction
166 122 110 71 55 48 352 285 275 312 335 353 106 121 132 138 168 192 132 139 135 142 153 153 152 146 140 136 132 130 128 129 128 126 127 130 129 126 128 129 128 128 128 127 125 121 115 111 112
131 132 70 59 75 50 305 285 300 302 258 101 71 88 96 91 87 115 132 147 141 144 149 154 154 149 144 140 137 135 133 133 133 131 131 133 132 130 129 132 130 131 130 129 125 120 113 110 111
153 106 78 70 91 164 255 273 272 315 347 56 67 55 87 129 136 154 161 146 141 145 150 161 157 153 147 144 142 141 140 139 138 137 136 135 135 134 133 135 136 135 133 130 122 115 111 108 109
104 54 55 70 133 222 222 266 290 330 4 39 88 69 49 42 153 150 143 145 143 147 153 165 159 157 153 149 147 147 145 145 145 143 141 139 139 137 138 140 142 143 138 134 130 127 123 118 114
64 75 60 37 281 267 250 268 283 321 17 48 89 97 14 9 99 127 143 149 151 152 158 168 163 161 158 156 154 152 152 151 149 149 147 145 143 141 143 145 147 149 149 142 136 135 133 129 123
59 67 81 290 282 281 272 249 214 221 178 95 102 105 344 65 119 141 146 148 153 155 156 164 168 165 164 162 159 157 154 152 153 154 152 150 148 148 145 144 147 153 155 153 147 146 139 132 130
104 99 144 197 265 286 260 227 191 196 181 179 137 120 266 146 137 135 129 127 137 146 149 159 167 170 170 167 161 157 154 156 158 158 159 159 157 158 155 152 153 158 163 164 158 154 147 139 136
124 106 128 214 220 260 263 318 265 147 227 116 131 150 206 185 136 121 112 114 130 143 152 153 153 157 160 168 167 162 161 162 164 165 166 165 164 166 169 166 170 169 172 172 171 163 154 146 139
92 84 195 217 201 239 251 327 309 159 124 106 151 183 175 136 132 127 124 134 153 165 165 153 152 153 152 163 173 166 164 163 163 167 169 164 151 158 175 183 182 184 179 175 174 166 159 154 145
101 149 219 215 198 216 263 238 255 34 28 13 19 57 120 136 148 155 163 172 177 180 177 167 165 160 156 168 156 148 158 157 152 155 154 139 128 166 167 185 183 186 187 179 169 162 157 141 121
156 193 226 236 217 204 246 279 223 134 256 237 205 164 147 152 160 170 177 181 184 181 176 175 174 168 165 157 147 143 135 142 148 149 139 128 116 126 113 90 187 129 153 132 149 134 106 119 127
175 234 220 241 207 191 208 231 261 196 236 237 179 158 156 163 173 182 184 183 172 173 180 176 175 173 173 160 158 158 160 172 184 173 158 147 149 146 139 126 107 94 93 95 92 103 101 125 137
206 253 237 238 259 215 181 214 240 277 282 90 126 142 158 170 179 178 168 164 169 178 182 182 178 178 174 167 175 168 175 179 188 168 168 164 167 166 152 146 139 126 117 113 104 104 121 138 138
218 237 289 278 242 202 156 279 94 276 290 103 125 153 170 177 173 162 163 175 181 183 186 186 183 181 174 175 174 169 173 174 172 175 181 174 170 161 156 165 153 141 131 125 119 121 125 134 142
140 356 327 303 228 203 119 350 270 260 110 114 140 158 169 180 168 175 185 183 182 185 184 187 184 177 177 177 176 167 167 166 177 184 182 177 170 164 166 172 162 156 135 124 107 100 97 104 110
58 52 320 300 306 136 122 253 278 276 129 140 152 149 160 185 186 187 181 168 174 177 180 188 184 175 177 174 168 163 162 158 175 190 192 184 174 166 164 170 165 156 133 124 124 115 107 92 95
39 89 265 304 334 101 135 236 278 302 149 177 183 160 159 174 205 198 181 171 176 180 179 178 173 168 167 162 149 150 150 158 169 174 173 186 175 168 164 169 161 148 133 131 137 108 114 115 103
207 192 248 269 302 98 172 243 279 300 201 206 189 172 163 172 214 205 182 165 158 160 158 162 152 146 144 137 123 112 117 136 150 168 164 165 172 165 159 157 153 146 136 132 124 115 102 110 112
161 168 236 259 260 138 219 251 279 294 291 238 194 185 177 183 207 149 149 143 141 142 136 150 150 145 140 142 150 155 174 172 160 165 141 154 161 158 155 152 149 151 148 146 137 124 110 89 94
164 201 261 292 337 125 229 285 279 266 252 213 188 185 182 146 75 117 147 151 166 168 158 158 155 149 146 158 161 153 144 147 144 116 109 141 152 156 159 154 158 153 143 139 137 132 123 97 84
206 198 215 227 353 32 71 321 315 312 348 25 143 174 182 182 185 190 179 181 176 168 176 177 167 153 144 132 115 97 76 69 76 89 113 142 153 156 157 158 152 147 148 154 151 146 142 134 92
234 220 199 191 125 292 119 272 288 286 313 319 185 187 216 205 195 200 194 188 187 189 182 171 156 152 142 141 143 143 155 161 181 171 151 123 140 156 160 155 149 148 147 152 157 146 142 136 137
209 187 160 162 148 118 349 192 278 306 285 267 244 218 220 217 201 200 196 186 174 172 164 158 145 145 145 150 156 153 152 147 121 107 104 96 100 131 144 145 142 144 146 153 150 141 136 136 144
148 81 61 54 79 234 231 183 271 241 230 238 227 215 205 204 195 161 130 130 132 133 136 133 138 142 144 145 156 161 156 141 128 123 120 116 113 108 117 131 138 146 148 150 152 147 142 141 136
117 99 42 7 19 248 232 195 248 248 232 209 208 203 194 186 168 151 138 143 140 134 140 141 137 133 137 143 164 172 163 153 159 159 152 147 132 125 145 131 132 140 148 148 144 141 143 148 145
167 143 156 188 212 264 277 230 251 263 246 184 174 167 160 164 169 165 161 155 149 145 143 140 134 135 136 141 161 172 156 148 154 157 157 155 149 142 133 130 126 128 134 138 134 129 141 139 144
142 169 161 135 154 231 270 275 296 281 143 135 144 151 178 187 171 162 151 144 148 150 146 141 140 138 142 146 137 146 149 140 145 146 138 130 122 122 119 119 118 115 117 128 132 134 142 138 140
146 145 112 128 152 224 266 253 242 233 221 211 190 191 201 202 183 154 150 145 142 141 127 124 132 138 147 150 153 140 126 138 139 127 120 116 108 105 114 115 120 117 117 121 125 134 143 141 148
121 117 119 126 154 160 224 259 227 207 199 198 206 204 194 190 188 168 146 138 131 122 121 124 120 113 118 125 118 118 121 116 112 115 122 124 114 115 117 122 124 126 128 128 124 129 137 146 150
161 162 147 152 199 175 180 257 280 198 187 180 190 190 180 164 155 141 134 128 128 132 136 138 131 129 135 127 120 119 117 109 104 108 112 116 117 117 123 122 117 120 122 125 133 142 147 156 161